Location: Dürabuch
(48.2640°N, 11.2185°E)
Time: 23:03:53
(UTC+00:00)

Lacrosse 5 rocket - Pass Details

Date: 23 May 2024
Orbit: 446 x 572 km, 57.0° (Epoch: 14 June)

Event Time Altitude Azimuth Distance (km) Brightness Sun altitude
Rises 01:20:47 0° 304° (NW) 2,729 4.9 -15.3°
Reaches altitude 10° 01:23:05 10° 300° (WNW) 1,813 3.9 -15.1°
Maximum altitude 01:27:05 54° 223° (SW) 646 1.3 -14.7°
Drops below altitude 10° 01:30:54 10° 146° (SE) 1,727 3.6 -14.4°
Sets 01:33:03 0° 141° (SE) 2,585 4.6 -14.2°
